Regional Weather Roundup
Issued by NWS Kansas City/Pleasant Hill, MO

Home | Current Version | Previous Version | Graphics & Text | Print | Product List | Glossary Off
Versions: 1 2 3 4 5 6 7 8 9 10 11 12 13 14 15 16 17 18 19 20 21 22 23 24 25 26 27 28 29 30 31 32 33 34 35 36 37 38 39 40 41 42 43 44 45 46 47 48 49 50

000
ASUS43 KEAX 302104
RWREAX

WEATHER ROUNDUP FOR EASTERN KANSAS AND NORTHWEST MISSOURI
NATIONAL WEATHER SERVICE KANSAS CITY/PLEASANT HILL MO
300 PM CST FRI JAN 30 2015

KSZ040-057-103>105-MOZ028-029-037-043-302200-
...KANSAS CITY METROPOLITAN AREA...

CITY           SKY/WX    TMP DP  RH WIND       PRES   REMARKS
K.C. INTL      CLOUDY    38  19  46 VRB3      30.44F
K.C. DOWNTOWN  PTSUNNY   42  17  36 S3        30.45F
LEES SUMMIT    MOSUNNY   40  17  39 CALM      30.44F
OLATHE - IXD   MOSUNNY   38  21  50 S6        30.45F WCI  33
OLATHE - OJC   MOSUNNY   39  20  46 S3        30.43F
LAWRENCE       MOSUNNY   40  22  48 VRB3      30.45F

$$

MOZ001>008-011>017-020>025-030>033-038>040-044>046-053-054-302200-
...NORTHERN AND CENTRAL MISSOURI...

CITY           SKY/WX    TMP DP  RH WIND       PRES   REMARKS
ST. JOSEPH     PTSUNNY   37  19  48 VRB5      30.46F WCI  33
MOSBY          MOCLDY    36  19  51 S3        30.46F
WARRENSBURG    PTSUNNY   37  18  44 CALM      30.46F
WHITEMAN AFB   CLOUDY    38  18  44 VRB1      30.45F
CLINTON        MOSUNNY   41  21  45 CALM      30.47F
SEDALIA        PTSUNNY   41  21  44 CALM      30.47F
WARSAW         NOT AVBL
MARSHALL       MOSUNNY   39  23  52 CALM      30.49F
CHILLICOTHE      N/A     37  18  46 S6        30.48F WCI  32
MOBERLY        SUNNY     37  18  44 S3        30.47F
KIRKSVILLE     SUNNY     35  12  38 VRB6      30.45F WCI  30

$$

MOZ041-047>049-056>058-063>065-088>090-097-302200-
...EASTERN AND SOUTHERN MISSOURI...

CITY           SKY/WX    TMP DP  RH WIND       PRES   REMARKS
ST. LOUIS INTL PTSUNNY   39  16  39 CALM      30.49S
SPIRIT OF STL  SUNNY     39  15  37 CALM      30.48F
COLUMBIA       SUNNY     38  17  42 SW3       30.46F
JEFFERSON CITY SUNNY     40  16  37 CALM      30.48F
MEXICO         SUNNY     37  25  60 CALM      30.48F
HANNIBAL       SUNNY     37  14  38 CALM      30.47F
ROLLA          SUNNY     41  17  38 VRB3      30.43F
LEBANON        SUNNY     45  12  26 CALM      30.44S
OSAGE BEACH    MOSUNNY   43  19  39 N3        30.46S
SPRINGFIELD    SUNNY     46  12  25 CALM      30.42F
BRANSON        PTSUNNY   50  16  25 SE6       30.43F
NEVADA         MOSUNNY   43  23  45 CALM      30.46F
JOPLIN         SUNNY     47  21  35 SE5       30.44F
WEST PLAINS    SUNNY     47  14  26 N5        30.43F

$$

IAZ060-094-KSZ022-034>040-054-083-096-NEZ052-066-093-302200-
...KANSAS...SOUTHEAST NEBRASKA AND IOWA...

CITY           SKY/WX    TMP DP  RH WIND       PRES   REMARKS
TOPEKA         MOSUNNY   40  22  48 S5        30.45F
MANHATTAN      PTSUNNY   44  26  49 S7        30.41F
EMPORIA        CLOUDY    41  23  48 CALM      30.42F
CHANUTE        MOSUNNY   42  22  44 VRB3      30.45S
WICHITA        CLOUDY    42  25  50 SE8       30.41F
OMAHA          PTSUNNY   37  23  56 S13       30.38F WCI  29
LINCOLN        CLOUDY    41  25  53 S14       30.37F WCI  33
FALLS CITY     PTSUNNY   39  23  52 S9        30.42F WCI  33
LAMONI         SUNNY     35  13  40 S10       30.42F WCI  27
DES MOINES     PTSUNNY   35  11  36 SW6       30.42F WCI  30

$$




USA.gov is the U.S. government's official web portal to all federal, state and local government web resources and services.